Olopoker : Agen Poker Terpercaya, Agen Poker Online, Agen Judi Poker

Agen Bola, Agen casino, Bandar Bola, Situs Bola

Jackpot

Texas Poker Multi Jackpot System

Kini Telah hadir Jackpot SUPER ROYAL FLUSH

Kini Telah hadir Jackpot 2000 (khusus table VIP keatas).

Ikutilah global jackpot yang tersedia di system kami, dengan system jackpot terbaru dan pertama di indonesia, anda dapat membeli jackpot dengan harga 100 rupiah saja dan menangkan hadiahnya hingga puluhan juta rupiah.

Jackpot bukanlah suatu keharusan untuk dibeli, namun kami memberikan suatu fitur tambahan untuk member tercinta dari www.stardomino.net.

Terdapat tiga pilihan harga jackpot yang bisa anda beli yaitu :100,500,1000 dan 2000(khusus table VIP Keatas) rupiah.

Hadiah dari Multi jackpot system www.stardomino.net

  1. full house x 10 harga jackpot yang anda beli.
      (contoh:anda membeli 1000 maka:1000 X10 = 10.000)
  2. four of kind x 250 harga jackpot yang anda beli
      (contoh:anda membeli 1000 maka:1000 X250 = 250.000)
  3. Straight flush x 1200
      (contoh:anda membeli 1000 maka:1000 X1200 = 1.200.000)
  4. Royal flush x 10000 harga jackpot yang anda beli
      (contoh:anda membeli 1000 maka:1000 X10000 = 10.000.000)
  5. SUPER ROYAL FLUSH x 30000 harga jackpot yang anda beli
      (contoh:anda membeli 1000 maka:1000 X30000 = 30.000.000)

Kondisi kartu

  1. full house adalah kondisi kartu dimana kartu anda dan kartu tengah dengan total 7 kartu bisa mendapatkan nilai 5 kartu dengan kombinasi 1 tris(three of kind) dan 1 pair, contoh 3 kartu 10 dan 2 kartu 5
  2. Four of kind adalah kondisi kartu dimana kartu anda dan kartu tengah dengan total 7 kartu bisa mendapatkan nilai 5 kartu dengan kombinasi 4 kartu yang sama jumlah dan 1 kartu apapun juga contoh anda mendapatkan 4 buah kartu angka 3 dan 1 kartu apapun.
  3. Staright flush adalah kondisi kartu dimana kartu anda dan kartu tengah dengan total 7 kartu bisa mendapatkan nilai 5 kartu dengan kombinasi seri / staright dengan kembang yang sama contoh : urutan kartu dari angka 5, 6, 7, 8 , 9 10 dengan kembang yg sama misalnya as hati
  4. Royal flush adalah kondisi kartu dimana kartu anda dan kartu tengah dengan total 7 kartu bisa mendapatkan nilai 5 kartu dengan kombinasi seri / staright dengan kembang yang sama tetapi kartu tersebut haruslah dimulai dari 10. contoh 10, Queen, Jack, King dan aces dengan kembang yang sama
  5. Super Royal flush adalah kondisi kartu dimana Kedua kartu anda digabung dengan 3 kartu pertama meja haruslah royal flush. contoh kartu anda 10,Queen kembang sama dan 3 kartu pertama meja adalah Jack, King dan aces dengan kembang yang sama

Demikian adalah penjelasan dari Multi Jackpot www.stardomino.net terima kasih dan selamat bermain salam hoki dari kami

Texas Poker Jackpot Winner

TOP SUPER ROYAL FLUSH
No.TanggalNamaPriceWin
123/07 19:42PLS8787Super Royal flush15,000,000
223/07 02:27TOENK06Super Royal flush15,000,000
322/07 22:22R3FILSuper Royal flush60,000,000
422/07 21:12WIL9Super Royal flush15,000,000
522/07 16:35T4D0015761Super Royal flush6,000,000
TOP ROYAL FLUSH
No.TanggalNamaPriceWin
123/07 23:34CUMANGEMOPRoyal flush5,000,000
223/07 23:19POSSIK09Royal flush5,000,000
323/07 23:05CB77KUSUKRoyal flush2,000,000
423/07 22:50HORAS155Royal flush1,000,000
523/07 22:47BEW0NKRoyal flush1,000,000
TOP STRAIGHT FLUSH
No.TanggalNamaPriceWin
124/07 00:00BAERONStraight Flush1,200,000
224/07 00:00FRY333Straight Flush600,000
323/07 23:57LB889204Straight Flush600,000
423/07 23:54ALE525Straight Flush240,000
523/07 23:54DUWAY78Straight Flush240,000
LATEST JACKPOT
No.TanggalNamaPriceWin
124/07 00:00SEV77Full House20,000
224/07 00:00VIOLLIRIANFull House2,000
324/07 00:00MEIRAAZZAFull House2,000
424/07 00:00ZEROX34Full House1,000
524/07 00:00B14890343Full House5,000
624/07 00:00D2F354CDFull House10,000
724/07 00:00GAGALOGINFull House10,000
824/07 00:00MP1910Full House10,000
924/07 00:00MR_TOOKS99Full House10,000
1024/07 00:00BUM1DATARFull House5,000
1124/07 00:00BAERONStraight Flush1,200,000
1224/07 00:00SAROJIFull House2,000
1324/07 00:00NGEJO5599Full House1,000
1424/07 00:00NCIKNDAFull House2,000
1524/07 00:00SKILL789Full House2,000
1624/07 00:00MHI11531Full House10,000
1724/07 00:00STEMPELFull House20,000
1824/07 00:00RJSF47698AFull House1,000
1924/07 00:00HOANGANH18Full House10,000
2024/07 00:00WU3SL3OSMEFull House5,000
2124/07 00:00IKI45Full House5,000
2224/07 00:00QQVPASSFour Of A Kind250,000
2324/07 00:00RAB_BANIFull House10,000
2424/07 00:00KIMBOY08Full House1,000
2524/07 00:00D1M4S90Full House1,000
2624/07 00:00NNADIN12Full House2,000
2724/07 00:00GR4BE89Full House2,000
2824/07 00:00LAHM09Full House5,000
2924/07 00:00CEZISARIFull House2,000
3024/07 00:00ASALOY99Full House10,000
3124/07 00:00JONSEN99Full House5,000
3224/07 00:00TATYKUFull House5,000
3324/07 00:00OPUNGSAWITFull House2,000
3424/07 00:00VERRIN19Full House2,000
3524/07 00:00KIMBERLY21Full House2,000
3624/07 00:00FRY333Straight Flush600,000
3724/07 00:00UNTUNG1N18Full House10,000
3824/07 00:00KANTANAFull House1,000
3924/07 00:00GAFIR02Full House20,000
4024/07 00:00AFIQA02Full House2,000
4124/07 00:00MACAN999Full House2,000
4224/07 00:00MRH2244Full House10,000
4324/07 00:00PAJALAE78Full House10,000
4424/07 00:00JIJII233Full House2,000
4524/07 00:00BHOKUNGFull House500
4624/07 00:00TUTUK001Four Of A Kind250,000
4724/07 00:00AAMUELQQFull House10,000
4824/07 00:00SPD690Full House2,000
4924/07 00:00SILVIA_15_Full House2,000
5024/07 00:00ZANI87Full House10,000

Domino Multi Jackpot System

Ikutilah global jackpot yang tersedia di system kami, dengan system jackpot terbaru dan pertama di indonesia, anda dapat membeli jackpot dengan harga 100 rupiah saja dan menangkan hadiahnya hingga puluhan juta rupiah.

Jackpot bukanlah suatu keharusan untuk dibeli, namun kami memberikan suatu fitur tambahan untuk member tercinta dari www.stardomino.net.

Terdapat tiga pilihan harga jackpot yang bisa anda beli yaitu :100,500 dan 1000 rupiah.

Hadiah dari Multi jackpot system www.stardomino.net

  1. Murni Kecil x 50 harga jackpot yang anda beli.
      (contoh:anda membeli 1000 maka:1000 X 50 = 50.000)
  2. Murni Besar x 50 harga jackpot yang anda beli
      (contoh:anda membeli 1000 maka:1000 X 50 = 50.000)
  3. BALAK x 100 harga jackpot yang anda beli
      (contoh:anda membeli 1000 maka:1000 X 100 = 100.000)
  4. ENAM DEWA x 6666 harga jackpot yang anda beli
      (contoh:anda membeli 1000 maka:1000 X 6666 = 6.666.000)

Demikian adalah penjelasan dari Multi Jackpot www.stardomino.net terima kasih dan selamat bermain salam hoki dari kami

Domino Jackpot Winner

TOP ENAM DEWA
No.TanggalNamaPriceWin
123/07 23:47RAEZ123murni enam6,666,000
223/07 22:21BIEBIE13murni enam6,666,000
323/07 21:26FHSTGH62PTmurni enam6,666,000
423/07 19:47HHHH20murni enam666,600
523/07 19:45KHAIRUL234murni enam3,333,000
TOP BALAK
No.TanggalNamaPriceWin
124/07 00:00KAYSAN99balak50,000
224/07 00:00DAPOLINKbalak50,000
323/07 23:59CACUK79balak100,000
423/07 23:58T4DBAROKAH33balak50,000
523/07 23:57FRIZKI88balak50,000
LATEST JACKPOT
No.TanggalNamaPriceWin
124/07 00:00KAYSAN99balak50,000
224/07 00:00MYBOXmurni besar5,000
324/07 00:00C99UNYILSR471murni kecil25,000
424/07 00:00DAPOLINKbalak50,000
523/07 23:59FRIZKI88murni kecil25,000
623/07 23:59ME2KPELEM9murni besar25,000
723/07 23:59SERBU6666murni kecil50,000
823/07 23:59QWEROPmurni kecil50,000
923/07 23:59CACUK79balak100,000
1023/07 23:58NAYUL99murni besar5,000
1123/07 23:58SUKROIIImurni besar25,000
1223/07 23:58T4DBAROKAH33balak50,000
1323/07 23:57IRSAD1111murni kecil50,000
1423/07 23:57ZOROSAN7murni besar50,000
1523/07 23:57FRIZKI88balak50,000
1623/07 23:57JAJAT156murni besar5,000
1723/07 23:56KUCING18murni besar5,000
1823/07 23:56EGGHGAIMFImurni kecil5,000
1923/07 23:55LAMPUIDmurni kecil50,000
2023/07 23:55HRPND601murni kecil25,000
2123/07 23:55PROKINGDOMmurni kecil5,000
2223/07 23:55CHENLIEmurni besar5,000
2323/07 23:55SARDE123lucky9925,000
2423/07 23:54DEKOLHOKIbalak10,000
2523/07 23:54YOYOM123murni kecil25,000
2623/07 23:54BLNDS07balak50,000
2723/07 23:53PAKDEGUNbalak10,000
2823/07 23:53MREZA8890murni kecil5,000
2923/07 23:53EDG62XFES6murni besar25,000
3023/07 23:52ZOROSAN7murni besar50,000
3123/07 23:52WERWADmurni besar50,000
3223/07 23:52SJFBJDAKHEbalak100,000
3323/07 23:51SARANEmurni kecil5,000
3423/07 23:51QWEROPmurni besar50,000
3523/07 23:51T3W337murni besar25,000
3623/07 23:51FHSTGH62PTmurni kecil50,000
3723/07 23:51CIKIECIWmurni kecil50,000
3823/07 23:51VANDELAmurni kecil50,000
3923/07 23:50SAKOY82lucky9950,000
4023/07 23:50RICKYADTlucky992,500
4123/07 23:50SJFBJDAKHEmurni kecil50,000
4223/07 23:49N1KO01balak100,000
4323/07 23:49BINSAR07murni besar25,000
4423/07 23:49GFBALAPmurni kecil25,000
4523/07 23:49B4N4NA55murni besar5,000
4623/07 23:48JNKKKK2121murni kecil5,000
4723/07 23:48MANTAN72murni kecil50,000
4823/07 23:48GANANG1427murni kecil25,000
4923/07 23:48FEBRIANSYAmurni besar25,000
5023/07 23:48LIUN37balak50,000

Ceme Multi Jackpot System

Jackpot dilihat dari gabungan kartu pemain dengan kartu bandar. Bandar harus membeli jackpot sebanyak jumlah player yang sedang duduk. Sebagai contoh bila terdapat 3 pemain duduk bermain, dan bandar memutuskan untuk membeli jackpot Rp 1.000, maka pada periode tersebut bandar akan membeli jackpot sebanyak 3xRp1.000 = Rp3.000.

Jackpot bukanlah suatu keharusan untuk dibeli, namun kami memberikan suatu fitur tambahan untuk member tercinta dari www.stardomino.net.

Terdapat tiga pilihan harga jackpot yang bisa anda beli yaitu :100,500 dan 1000 rupiah.

Hadiah dari Multi jackpot system www.stardomino.net

  1. Murni Kecil x 50 harga jackpot yang anda beli.
      (contoh:anda membeli 1000 maka:1000 X 50 = 50.000)
  2. Murni Besar x 50 harga jackpot yang anda beli
      (contoh:anda membeli 1000 maka:1000 X 50 = 50.000)
  3. BALAK x 200 harga jackpot yang anda beli
      (contoh:anda membeli 1000 maka:1000 X 200 = 200.000)
  4. ENAM DEWA x 6666 harga jackpot yang anda beli
      (contoh:anda membeli 1000 maka:1000 X 6666 = 6.666.000)

Demikian adalah penjelasan dari Multi Jackpot www.stardomino.net terima kasih dan selamat bermain salam hoki dari kami

Ceme Jackpot Winner

TOP ENAM DEWA
No.TanggalNamaPriceWin
123/07 23:51GI93murni enam3,333,000
223/07 23:33POWPOW32murni enam666,600
323/07 23:27CRLIEmurni enam6,666,000
423/07 23:07C4BC884Bmurni enam6,666,000
523/07 22:58FRUGALCLUBmurni enam6,666,000
TOP BALAK
No.TanggalNamaPriceWin
123/07 23:59TESSObalak200,000
223/07 23:58DELA1987balak20,000
323/07 23:58030486balak200,000
423/07 23:58BXG44G11BDbalak200,000
523/07 23:58MENUMBINGGbalak200,000
LATEST JACKPOT
No.TanggalNamaPriceWin
124/07 00:00TAGOK22murni kecil5,000
224/07 00:00ICHAL_777murni besar50,000
324/07 00:00MONDRO218murni kecil50,000
424/07 00:00NGILER77murni besar50,000
524/07 00:00AYAMKAMVUSmurni kecil50,000
624/07 00:00ARULQQ22murni kecil25,000
724/07 00:00DAKYANImurni kecil50,000
824/07 00:00DELA1987murni kecil5,000
923/07 23:59CONDELITAmurni besar50,000
1023/07 23:59RQ11206murni besar50,000
1123/07 23:59TOTTI197murni besar50,000
1223/07 23:59NAGAPOKER9murni kecil5,000
1323/07 23:59F6A2C1A5murni besar25,000
1423/07 23:59TESSObalak200,000
1523/07 23:59MURAY2709murni kecil50,000
1623/07 23:59C441976491murni besar50,000
1723/07 23:59TUANALmurni kecil50,000
1823/07 23:59DEFFANRSmurni kecil50,000
1923/07 23:59LUMPIA123murni kecil25,000
2023/07 23:59LINGMINmurni kecil50,000
2123/07 23:58AGOY33murni kecil50,000
2223/07 23:58DELA1987balak20,000
2323/07 23:58030486balak200,000
2423/07 23:58MBELDOSDORmurni besar50,000
2523/07 23:58IBLISTIDURmurni besar50,000
2623/07 23:58KOLORIJO90murni besar50,000
2723/07 23:58AKUROTOmurni kecil50,000
2823/07 23:58APV1424murni kecil25,000
2923/07 23:58GOTEM008murni besar50,000
3023/07 23:58ARCHER50murni besar50,000
3123/07 23:58BENS003murni besar50,000
3223/07 23:58HAM626murni kecil50,000
3323/07 23:58C84L24210murni kecil25,000
3423/07 23:58BXG44G11BDbalak200,000
3523/07 23:58MENUMBINGGbalak200,000
3623/07 23:58PAKBEEKBROmurni kecil50,000
3723/07 23:58AJOO100murni kecil5,000
3823/07 23:58DHOWENKZZmurni kecil25,000
3923/07 23:58DADI1679murni kecil25,000
4023/07 23:57JJHFFGHGDFbalak100,000
4123/07 23:57SATRIAWD99balak20,000
4223/07 23:57SAKU8888murni kecil5,000
4323/07 23:57BLONDE_AAmurni besar50,000
4423/07 23:57PUNUH91murni besar25,000
4523/07 23:57AD136929murni kecil5,000
4623/07 23:57ROJIP33murni kecil25,000
4723/07 23:57LB991471murni kecil5,000
4823/07 23:57ITOY12murni besar25,000
4923/07 23:57ADIB026murni kecil50,000
5023/07 23:57NOPISURmurni kecil50,000